Location: Killam
(52.7910°N, 111.8608°W)
Time: 10:54:42
(UTC+00:00)

VELOX 1 - Visible Passes

Search period start: 30 November 2023 00:00
Search period end: 10 December 2023 00:00
Orbit: 610 x 625 km, 98.4° (Epoch: 30 November)

Date Brightness Start Highest point End Pass type
(mag) Time Alt. Az. Time Alt. Az. Time Alt. Az.
30 Nov ? 12:02:00 10° E 12:04:05 13° NE 12:06:09 10° NNE visible
30 Nov ? 13:35:08 10° SSE 13:39:24 77° ENE 13:43:42 10° NNW visible
01 Dec ? 12:17:40 10° E 12:20:31 18° NE 12:23:21 10° NNE visible
01 Dec ? 13:51:46 10° S 13:56:03 76° WSW 14:00:21 10° NNW visible
02 Dec ? 12:33:36 10° ESE 12:36:58 23° ENE 12:40:20 10° N visible
02 Dec ? 14:08:30 10° S 14:12:42 53° W 14:16:55 10° NNW visible
03 Dec ? 12:49:41 10° SE 12:53:26 30° ENE 12:57:13 10° N visible
03 Dec ? 14:25:24 10° SSW 14:29:23 38° W 14:33:24 10° NNW visible
04 Dec ? 13:05:55 10° SE 13:09:56 41° ENE 13:13:58 10° N visible
05 Dec ? 11:50:27 10° ENE 11:51:18 11° NE 11:52:09 10° NE visible
05 Dec ? 13:22:15 10° SSE 13:26:26 57° ENE 13:30:40 10° N visible
06 Dec ? 12:05:26 10° E 12:07:38 14° NE 12:09:50 10° NNE visible
06 Dec ? 13:38:42 10° SSE 13:42:59 80° ENE 13:47:18 10° NNW visible
07 Dec ? 12:21:04 10° E 12:23:59 18° ENE 12:26:55 10° NNE visible
07 Dec ? 13:55:16 10° S 13:59:33 73° WSW 14:03:51 10° NNW visible
08 Dec ? 12:36:56 10° ESE 12:40:22 24° ENE 12:43:48 10° N visible
08 Dec ? 14:11:57 10° S 14:16:07 51° W 14:20:20 10° NNW visible
09 Dec ? 12:52:58 10° SE 12:56:45 31° ENE 13:00:34 10° N visible
09 Dec ? 14:28:46 10° SSW 14:32:43 36° W 14:36:43 10° NNW visible
